RH
74 75 75 74 74 75 76 75 74 73 72 70 69 69 67 65 65 68 69 69 68 66 63 62 61 59 57 57 57 58 59 60 61 61 62 63 62 60 58 56 57 59 59 61 62 61 59 57 57 56 55 57 58 59 60 59 58 57 59 62 63 65 65 66 72 73 63 58 59 59 57 58 60 59 56 55 54 53 54 54 55 56 56 56 56
74 74 74 74 73 74 75 74 74 73 72 72 70 68 67 66 66 67 69 68 68 67 64 62 60 58 57 57 57 58 59 61 62 61 60 63 66 65 61 60 61 60 60 60 60 59 60 61 62 61 60 61 60 60 60 59 59 58 59 62 62 62 64 64 66 69 67 61 58 58 56 56 57 54 53 56 55 54 56 56 55 56 58 58 59
72 73 74 73 72 73 74 74 74 74 73 73 71 69 68 67 67 67 67 67 66 66 64 63 61 59 57 58 58 58 59 61 63 62 60 61 63 64 63 62 62 61 58 56 56 56 57 59 60 60 61 63 61 59 59 59 59 59 60 62 62 61 62 63 63 65 66 63 60 59 57 56 54 50 49 51 51 51 56 59 59 59 59 60 60
70 72 73 73 72 72 73 73 73 74 74 72 71 70 69 68 68 67 67 66 66 65 64 63 62 60 59 59 59 60 60 61 63 64 62 60 60 61 62 62 62 62 60 59 59 60 60 60 60 59 61 62 61 59 59 59 58 57 59 61 61 61 61 62 62 61 63 64 63 59 57 55 53 50 49 49 48 48 51 56 60 62 61 60 60
68 70 71 72 72 72 72 72 72 74 74 72 71 71 70 69 69 68 67 67 67 66 65 64 64 62 61 61 60 60 61 61 63 64 64 63 62 62 62 62 62 62 63 63 62 61 60 60 61 62 63 62 60 60 59 57 57 56 56 58 60 59 58 60 61 61 63 65 63 60 58 57 55 53 52 52 52 52 53 55 59 62 62 60 60
65 68 70 70 71 72 72 72 72 73 73 72 71 70 69 69 69 69 67 67 67 67 67 66 65 64 63 62 61 61 61 63 63 63 64 64 64 64 63 62 62 62 63 61 59 58 58 59 61 63 64 62 60 60 59 56 57 59 58 58 58 56 57 61 64 65 66 65 63 62 59 57 57 58 56 57 59 59 58 59 61 62 63 62 59
63 66 68 69 69 71 72 71 70 71 72 71 70 69 69 68 68 69 68 67 66 67 68 68 67 66 65 64 63 62 62 65 65 63 64 65 65 66 65 64 64 64 64 63 62 63 63 64 65 64 63 62 60 60 59 57 57 58 58 58 58 58 60 63 65 67 69 68 66 65 62 60 63 65 63 62 62 61 62 66 67 63 61 61 59
60 64 67 67 68 69 70 70 69 69 70 70 69 68 67 66 67 68 68 67 66 66 68 70 69 68 67 66 65 62 63 67 67 64 64 64 64 65 66 66 67 67 66 65 66 66 66 65 65 64 63 63 61 60 59 57 57 55 55 56 58 59 60 62 65 69 72 72 69 68 68 69 68 69 68 65 65 64 63 66 68 64 60 60 60
57 62 66 66 66 67 69 69 69 69 69 69 68 67 66 65 65 66 67 66 66 66 68 71 72 71 68 68 67 65 65 67 67 66 65 65 65 66 67 68 68 67 66 66 66 66 65 64 64 64 64 63 62 60 59 59 58 56 55 56 57 58 60 64 68 69 69 71 73 72 74 75 74 73 72 68 67 65 61 62 66 65 64 64 64
55 59 64 65 64 65 67 68 68 68 69 69 68 67 66 64 63 63 65 65 66 68 71 74 76 74 71 70 70 69 68 68 68 67 66 66 67 67 68 67 66 65 65 66 68 67 66 66 65 63 63 63 62 59 58 58 59 58 58 57 58 60 62 64 64 64 69 76 78 78 80 81 78 77 74 69 67 66 64 65 68 69 71 73 71
53 56 60 63 63 63 65 66 67 67 68 69 69 68 66 64 62 61 62 64 66 68 73 77 79 77 75 73 71 71 70 70 69 70 69 68 67 68 66 61 59 62 65 67 68 68 67 65 64 63 64 63 62 61 60 60 61 61 60 60 61 62 62 62 61 63 71 77 79 80 84 85 81 80 79 74 71 70 70 72 75 76 79 82 83
51 54 57 60 62 62 64 65 66 67 68 68 69 69 67 65 63 62 63 65 67 69 72 76 78 78 78 75 73 71 69 67 68 71 73 72 70 68 63 56 56 62 66 68 68 67 66 65 65 65 66 64 65 65 64 64 64 62 59 60 62 62 61 63 65 66 71 77 81 83 84 85 85 81 78 77 75 74 75 77 79 81 83 85 86
49 53 55 57 60 61 62 65 66 67 67 68 69 69 68 67 64 63 65 68 70 71 72 74 77 78 78 76 74 71 67 66 69 72 75 78 76 70 61 57 60 65 67 69 69 67 66 67 67 67 67 66 66 66 65 65 64 61 57 58 62 64 65 67 67 69 72 75 80 81 80 83 84 74 69 74 77 77 80 82 82 83 84 81 78
47 52 54 55 57 59 62 64 65 67 67 68 69 69 68 68 66 64 67 72 74 73 72 74 76 78 78 77 75 74 72 72 73 74 78 83 81 72 61 57 62 67 68 69 71 70 69 68 68 69 70 68 68 67 68 67 64 60 58 61 65 67 68 69 71 73 74 74 77 76 71 71 70 66 69 78 83 84 86 86 83 79 74 70 67
44 50 52 54 56 58 61 63 64 67 68 68 69 69 68 68 68 68 70 74 75 74 72 73 74 76 77 76 75 76 75 75 75 76 79 83 80 71 62 57 61 68 70 71 72 72 72 71 71 71 71 69 70 69 68 65 62 61 63 67 70 73 77 79 79 79 77 75 75 73 70 68 71 76 82 85 86 85 82 78 74 69 67 68 67
43 47 50 51 54 56 60 63 65 68 70 70 70 70 69 69 70 73 74 75 76 74 71 71 72 73 74 73 72 72 71 71 71 72 75 76 75 70 61 58 65 72 73 73 73 72 72 74 73 72 70 68 67 65 63 62 64 66 69 72 76 81 81 76 73 75 75 75 78 80 80 81 84 85 83 80 78 75 71 69 67 64 69 74 73
42 45 47 48 50 54 57 63 67 70 71 72 73 72 72 73 75 76 77 77 75 73 73 72 70 69 69 68 65 65 67 67 66 65 65 66 68 65 56 58 70 76 75 75 75 73 74 74 72 69 67 65 63 62 63 68 71 72 74 78 83 84 78 73 75 78 78 78 81 81 80 80 79 76 71 69 69 67 67 69 66 66 75 83 83
42 44 46 47 47 51 56 62 68 71 73 74 75 75 76 78 78 77 76 76 75 73 73 73 70 68 66 64 63 65 67 66 64 62 61 60 61 59 54 58 69 75 77 78 78 76 75 73 72 73 71 70 69 70 72 76 76 76 78 83 87 84 80 80 82 81 77 75 74 73 73 70 64 57 54 56 60 62 66 67 64 67 78 84 83
41 43 44 45 46 50 57 63 68 72 75 77 77 79 80 80 79 77 75 74 73 72 72 73 73 71 67 65 65 67 68 65 63 63 62 59 58 56 56 60 67 74 79 81 80 78 75 73 76 81 82 81 80 79 79 79 77 76 80 86 88 87 85 86 85 81 78 75 73 71 67 58 51 50 53 59 62 64 65 66 66 72 82 85 84
39 41 43 45 49 54 60 67 71 75 78 79 80 81 81 80 79 77 74 72 70 71 73 73 72 71 69 68 67 67 67 64 62 61 60 58 57 56 57 62 69 76 81 81 79 78 76 76 79 82 85 87 86 84 82 80 80 82 84 87 90 88 86 85 84 81 79 75 69 62 53 48 52 59 62 62 61 60 62 65 67 73 80 82 77
38 43 48 52 56 61 66 71 75 77 79 80 82 82 81 81 79 77 75 72 70 70 71 71 71 72 72 70 68 68 68 65 63 61 60 59 58 58 59 63 68 75 80 81 79 77 76 77 77 79 84 88 86 83 83 83 84 83 81 82 84 82 78 76 73 72 70 64 55 49 49 55 62 65 64 60 59 61 63 63 61 61 63 62 58
44 53 59 63 66 70 73 74 76 79 80 80 81 82 82 81 80 79 78 75 71 69 69 70 71 73 73 70 69 69 68 66 64 63 61 60 60 61 62 64 65 71 78 81 80 77 74 74 76 79 83 83 79 78 80 78 74 70 68 70 71 70 68 66 64 63 59 50 45 50 60 66 65 63 63 62 62 64 63 59 55 53 51 48 46
58 66 70 73 75 76 77 77 78 80 81 80 81 83 83 82 82 81 80 77 75 73 70 68 70 71 72 72 71 70 69 67 66 66 64 62 63 63 66 69 71 74 79 79 78 76 76 78 80 79 77 76 75 73 70 64 60 59 60 62 62 62 61 60 58 55 48 45 52 63 69 67 62 60 58 58 60 60 56 53 51 48 45 42 42
72 77 78 79 81 81 80 80 81 82 82 80 81 82 82 82 82 81 79 78 78 74 68 65 68 70 71 71 71 71 68 65 65 67 67 65 64 65 70 76 80 80 78 77 76 77 78 79 78 74 73 75 76 73 66 60 58 58 58 58 58 57 55 54 51 46 46 52 62 67 64 58 54 53 53 56 58 54 50 49 47 43 41 42 44
82 84 84 84 84 83 84 83 83 83 82 81 80 80 80 81 80 77 74 73 72 70 66 65 68 70 70 71 71 69 67 63 63 66 68 68 67 68 71 76 79 79 77 76 75 75 76 75 74 74 75 77 79 78 72 64 59 57 57 57 55 51 49 49 49 49 53 58 63 65 61 53 48 50 54 56 53 48 46 47 45 41 41 42 42
91 91 92 91 89 87 87 87 86 85 83 80 78 76 74 75 74 70 69 69 70 69 67 66 68 69 70 70 69 67 66 65 63 65 69 71 71 72 72 75 77 77 77 75 73 75 77 75 75 76 77 79 82 81 74 65 59 57 56 53 50 48 48 49 51 54 58 58 62 66 61 52 51 56 55 49 43 42 44 44 42 40 40 39 39
92 93 94 93 90 87 87 88 87 85 81 79 77 74 71 70 68 68 69 70 71 69 65 63 65 67 69 69 68 66 67 67 65 66 70 71 71 71 71 72 74 76 77 74 72 75 80 79 79 80 81 82 84 79 72 66 60 56 53 51 48 48 49 50 53 57 58 59 64 66 60 54 55 52 44 38 37 39 40 39 40 39 37 35 36
86 87 87 88 88 87 87 87 85 82 79 78 77 76 73 68 66 67 68 68 67 65 61 59 59 61 65 70 72 74 76 72 65 63 64 63 64 66 67 68 69 71 74 74 71 72 79 82 82 83 84 84 82 77 71 66 62 57 52 49 50 50 50 52 56 57 57 62 69 68 60 53 48 41 36 36 37 37 37 36 36 35 33 34 38
83 85 85 86 88 88 87 85 82 80 79 79 78 78 74 69 65 66 66 65 62 60 58 57 55 55 58 65 74 81 82 73 62 59 59 58 58 58 59 63 64 65 71 74 72 73 80 82 80 81 83 81 77 72 67 64 61 57 53 52 55 55 54 56 61 62 62 67 71 65 53 45 41 37 36 37 36 35 36 35 34 33 33 36 40
84 85 84 85 87 86 84 82 81 80 79 79 80 80 76 70 64 63 63 62 60 58 57 56 55 53 54 58 66 70 67 60 57 59 60 58 56 56 56 58 61 65 71 74 71 73 79 79 77 77 76 73 69 65 62 61 59 57 57 59 61 61 63 65 66 64 63 61 57 49 41 38 38 35 34 35 35 35 35 33 32 34 36 38 41
84 82 82 84 84 83 83 82 81 80 79 78 78 77 75 71 65 60 60 61 60 58 58 57 56 54 52 53 58 61 58 55 57 59 59 57 58 59 58 59 62 66 69 70 71 75 78 77 74 71 67 64 64 63 62 63 64 63 63 63 63 68 74 70 58 51 51 47 41 37 35 36 36 34 35 37 37 35 33 32 34 35 35 36 41
81 81 82 83 82 82 83 82 80 78 78 77 75 73 72 73 71 66 61 60 59 58 57 56 55 54 51 49 53 60 62 59 57 57 58 59 61 60 59 59 63 66 67 69 72 76 75 71 69 67 66 66 67 66 65 66 66 64 63 64 66 70 71 61 47 42 43 39 34 34 36 37 37 37 37 37 35 33 33 35 35 35 34 36 39
78 80 81 80 79 80 81 81 78 77 77 75 73 71 69 71 75 75 71 65 62 60 58 56 54 54 53 50 50 55 59 59 58 58 58 59 61 63 63 64 66 68 70 73 75 75 73 69 67 68 70 69 68 66 64 60 57 54 54 57 58 57 53 48 43 41 39 36 34 34 35 35 33 32 31 32 33 35 36 37 35 33 34 37 38
76 79 79 76 76 77 79 79 77 76 75 74 72 71 69 68 70 73 72 69 66 63 60 58 56 55 53 52 51 54 58 59 60 59 58 59 64 67 68 69 71 72 73 75 74 72 68 66 65 66 66 63 60 59 58 54 50 48 49 50 49 47 46 44 42 40 39 38 37 36 35 33 31 29 29 32 36 37 36 34 32 32 36 38 36
76 76 75 72 72 73 76 77 76 75 76 74 72 71 70 67 65 65 65 66 67 66 64 62 59 57 54 52 52 56 59 60 60 60 61 65 70 71 70 71 72 72 73 74 72 67 63 62 63 63 61 58 56 55 54 53 50 49 50 50 48 46 46 44 43 44 43 40 37 36 34 33 31 29 30 34 37 37 34 31 32 35 36 35 34
75 74 72 70 69 70 73 74 74 74 74 72 70 69 67 66 65 64 64 64 66 66 66 65 64 62 59 54 52 56 61 64 65 66 68 70 70 68 67 68 69 70 72 72 69 64 61 60 59 58 57 57 55 53 53 53 52 51 51 50 48 47 47 45 46 46 42 37 34 32 29 28 29 30 33 36 36 34 32 31 33 35 33 32 36
74 74 72 69 67 68 70 71 71 72 71 69 68 68 68 67 67 65 64 67 68 66 65 65 67 68 65 60 57 59 63 66 68 69 70 71 69 66 65 66 66 68 70 66 61 57 56 54 53 55 57 56 53 52 53 53 52 52 51 49 47 47 47 46 45 43 38 36 36 35 33 35 37 37 36 35 33 32 32 32 32 33 32 34 37
73 71 69 68 66 67 69 69 69 69 69 69 68 69 69 69 67 64 65 69 70 66 63 64 67 69 68 65 61 59 60 62 66 69 70 70 70 69 67 65 63 63 60 56 54 54 53 53 55 58 57 54 52 53 52 51 52 52 49 47 47 48 46 44 42 39 36 35 35 36 39 40 39 36 35 33 32 32 31 31 32 33 34 36 37
72 69 69 68 66 65 65 67 67 67 67 67 67 68 69 69 67 66 69 72 70 66 63 65 68 69 68 66 64 62 62 64 66 68 69 70 69 67 66 65 65 63 59 57 58 57 55 56 58 58 55 54 55 55 52 51 52 51 47 47 50 49 45 43 40 37 35 34 35 36 38 37 35 34 34 33 31 31 31 32 34 35 35 36 37
72 71 70 69 68 67 67 67 68 67 67 68 67 66 67 67 66 67 69 72 71 67 64 66 68 67 65 64 62 60 60 62 64 64 66 68 70 67 65 65 67 65 61 61 62 60 58 58 59 57 54 54 54 54 53 52 50 48 47 47 48 46 44 43 40 34 31 31 32 35 36 34 34 35 34 32 32 32 33 36 36 34 34 36 37
75 77 75 72 72 73 72 71 71 68 66 67 65 62 62 63 63 65 69 72 71 67 66 68 67 62 58 57 56 54 53 55 58 61 63 67 69 67 62 62 63 62 60 60 61 61 60 59 57 54 53 52 51 52 54 52 50 50 50 48 46 44 43 41 36 30 27 27 29 32 35 35 35 35 34 33 33 34 35 36 34 33 35 37 36
80 83 82 76 72 71 72 74 75 71 64 60 57 54 54 55 59 65 70 71 70 68 69 72 69 62 56 53 55 57 56 54 55 61 64 65 64 62 59 59 60 60 58 58 58 58 58 57 54 53 53 52 51 52 53 51 50 51 50 48 46 44 41 38 34 30 29 31 33 35 36 35 34 34 33 34 35 36 36 35 34 35 38 38 36
78 80 78 73 71 69 67 67 68 64 58 54 52 50 49 52 58 65 69 69 68 68 70 72 71 64 59 57 59 63 65 61 59 61 62 61 60 60 58 57 57 57 56 57 56 54 54 54 53 53 53 52 52 52 52 52 52 51 48 46 45 42 38 35 31 29 31 35 37 37 37 35 35 35 35 36 37 36 37 37 36 37 39 38 36
76 74 71 68 68 65 61 61 61 57 52 50 53 56 57 57 60 64 66 66 68 68 69 69 67 61 58 61 64 66 68 69 67 64 62 61 61 60 57 55 55 55 56 56 55 54 54 54 53 54 54 54 53 53 52 51 50 48 45 44 43 39 34 31 28 28 32 35 36 38 38 36 36 37 38 38 38 39 40 39 38 38 40 39 37
69 71 70 71 70 66 61 59 58 55 53 52 53 57 59 58 58 60 63 66 68 69 69 70 67 59 55 59 63 63 66 71 73 70 67 65 63 60 58 57 56 56 56 55 55 55 55 54 54 54 54 53 52 52 51 49 49 48 46 44 40 34 31 32 34 35 36 36 36 38 37 36 38 41 42 42 42 44 43 40 38 40 41 39 36
62 68 72 72 70 66 64 63 59 56 57 58 56 53 53 53 51 52 56 61 65 67 69 72 71 65 59 59 60 60 61 65 67 67 67 65 61 59 59 58 56 56 56 55 56 56 55 55 54 53 51 50 50 50 50 50 50 49 46 44 40 34 31 33 37 39 40 40 40 41 38 36 37 38 40 43 47 47 44 41 41 41 39 36 35
59 60 62 62 60 62 68 71 67 60 57 58 56 52 50 50 49 49 52 57 61 64 65 67 69 68 65 63 64 64 63 62 60 61 63 61 57 56 56 55 55 57 57 56 56 56 56 56 55 53 50 49 48 49 50 51 51 49 47 45 41 35 31 33 35 37 39 41 41 39 36 31 26 25 32 44 50 48 45 44 42 38 35 34 35
61 57 57 57 58 60 63 62 58 52 49 50 52 50 49 49 49 50 52 56 59 62 63 63 65 65 63 62 63 63 61 60 58 59 60 59 55 53 53 53 54 56 56 56 57 56 54 54 53 52 50 48 48 50 51 51 51 52 52 49 41 33 29 29 30 30 31 33 32 29 26 21 18 23 37 48 51 48 47 45 40 34 33 34 35
63 60 59 59 57 56 55 51 48 47 46 47 49 48 48 48 50 52 54 54 55 57 59 61 63 64 62 60 60 59 59 59 59 59 59 59 56 53 51 50 51 53 54 55 55 54 52 51 51 51 50 48 48 50 51 51 52 54 54 51 43 33 28 29 29 28 29 29 26 22 19 17 18 28 43 51 51 50 50 47 39 34 34 35 36
65 63 62 62 61 58 55 52 50 49 48 48 50 49 49 49 51 53 54 54 52 52 53 55 58 60 60 58 57 57 57 58 59 58 56 55 53 52 50 49 50 51 53 53 54 53 52 51 51 50 48 47 47 49 50 51 53 53 53 52 46 37 32 32 32 31 33 31 24 18 18 18 18 27 42 53 54 52 50 46 41 37 36 37 38
64 61 58 59 61 59 55 54 54 53 52 53 54 52 50 50 51 51 53 54 53 52 52 52 52 54 55 55 54 54 55 56 57 56 54 52 51 51 49 48 49 51 53 53 53 52 50 49 48 47 46 46 47 49 50 51 51 51 52 52 48 41 37 36 35 35 36 31 22 18 19 17 17 28 45 56 56 52 49 46 42 39 38 39 39
Wind_Speed
40 39 38 38 37 39 40 41 41 40 39 38 37 37 38 38 37 36 36 36 36 37 36 34 34 35 34 32 30 29 28 26 25 24 24 23 22 22 21 20 21 19 16 16 15 15 14 13 13 13 13 13 12 10 9 9 9 9 8 10 11 11 12 12 10 9 11 12 12 12 12 12 13 14 15 16 16 16 17 19 20 22 24 24 22
40 39 39 39 39 40 40 41 41 40 40 38 37 38 38 39 39 37 36 37 37 37 37 36 35 35 34 32 31 30 29 28 26 25 26 26 25 24 23 22 22 21 20 18 17 16 16 14 13 12 12 14 13 10 10 11 11 11 10 10 12 12 13 14 12 11 11 12 14 15 14 14 15 15 15 15 16 17 18 19 19 19 21 22 23
40 39 39 40 41 41 40 40 41 40 39 39 39 39 39 39 40 38 37 38 38 37 37 37 37 36 35 34 33 33 32 30 29 28 28 28 28 26 25 25 24 23 22 21 19 19 18 17 15 13 11 12 12 11 10 12 12 12 11 11 11 11 12 13 12 11 12 13 15 16 16 16 17 17 15 15 16 16 18 20 20 20 20 21 23
39 39 40 41 41 41 41 41 41 40 39 39 40 41 40 40 40 39 38 38 38 37 37 37 37 37 36 36 36 35 34 33 32 31 29 29 29 29 27 27 25 23 23 22 20 19 18 18 17 16 13 13 12 12 13 15 15 13 12 12 11 11 11 11 12 13 14 14 16 18 18 18 20 19 18 17 18 18 18 19 20 22 22 22 23
38 40 40 40 40 41 42 42 42 41 40 40 41 41 41 40 40 40 40 39 38 38 38 37 37 38 38 38 38 37 36 35 34 32 31 30 30 30 29 28 27 25 23 22 21 19 18 18 17 16 16 15 14 14 14 15 15 15 14 13 13 13 12 13 14 15 15 16 18 19 19 19 22 23 21 19 20 21 20 20 20 20 21 22 24
38 40 41 40 40 41 42 43 43 42 42 41 41 41 41 41 41 41 40 40 39 38 38 38 39 39 39 39 39 37 35 35 35 34 32 31 31 30 29 29 28 27 25 24 23 21 20 19 18 17 17 17 16 16 16 15 14 14 14 14 14 15 15 15 15 15 16 17 19 20 21 22 24 25 24 21 20 21 22 21 20 20 21 22 22
38 39 41 41 41 41 43 44 44 43 42 42 42 42 42 41 41 42 41 40 38 38 38 38 39 39 39 39 38 37 35 34 35 34 34 33 32 31 30 30 29 27 26 25 23 21 20 19 18 18 18 18 18 17 16 16 14 13 13 13 12 13 15 15 16 17 17 18 19 22 24 25 25 26 25 22 20 21 21 20 20 21 22 22 21
38 39 40 41 41 42 44 45 45 43 43 43 42 42 42 41 41 41 41 40 39 38 38 38 38 38 38 38 37 36 35 34 35 35 35 34 33 32 32 31 30 28 27 26 24 22 22 21 20 20 19 19 19 17 16 17 16 14 14 14 14 14 15 16 18 18 19 20 21 23 23 23 24 24 24 22 21 21 20 19 20 22 22 21 21
38 38 39 41 42 43 44 44 44 43 43 43 43 42 42 41 39 38 39 40 39 38 37 37 36 36 37 36 35 36 36 36 36 37 37 36 35 34 33 32 31 29 28 27 25 24 23 22 21 21 21 20 20 18 18 17 16 15 15 15 15 15 16 18 19 20 21 20 20 20 19 20 23 23 22 22 21 20 19 19 20 20 19 19 20
39 39 39 42 44 44 44 43 43 43 43 44 44 42 40 39 38 38 39 40 39 36 34 34 34 35 35 35 35 35 36 37 37 38 38 37 36 35 34 32 31 29 28 27 25 25 24 23 21 20 21 21 20 19 18 17 15 14 13 13 15 16 17 19 20 22 21 18 18 18 17 19 22 21 19 20 19 17 17 18 18 17 16 16 19
41 40 41 42 43 43 43 43 42 43 43 43 42 40 39 38 37 37 38 39 38 35 33 32 33 34 34 34 34 35 36 36 37 38 39 38 36 35 33 32 30 29 28 27 26 25 24 24 22 19 18 18 17 17 17 16 15 14 14 15 16 17 19 21 22 22 19 17 18 18 17 19 21 19 18 18 17 17 17 16 15 17 16 14 14
41 42 42 42 42 43 43 43 43 43 43 41 40 39 38 37 37 35 34 35 36 34 32 33 33 33 33 33 34 35 36 37 37 37 36 35 33 31 31 30 30 29 28 27 26 25 24 23 21 19 18 17 17 17 17 17 16 16 17 17 18 19 20 21 21 20 19 19 19 19 19 20 20 20 20 18 18 19 18 18 18 17 16 13 13
41 41 42 42 43 43 43 43 42 42 41 40 38 38 37 36 37 36 33 32 32 32 32 32 32 32 32 32 33 34 36 36 35 34 33 30 28 27 27 28 29 28 28 28 27 26 24 22 21 19 19 19 18 18 18 17 16 17 18 19 19 19 19 19 20 20 20 20 19 21 23 22 21 23 22 20 20 21 21 22 21 17 15 15 18
39 40 42 44 44 45 44 43 42 41 40 39 37 36 37 37 37 35 32 29 29 29 29 29 30 31 32 31 32 33 34 33 31 32 32 29 27 28 30 30 29 28 28 28 28 26 25 23 22 20 20 20 20 19 19 18 18 18 19 19 19 18 17 18 19 20 21 21 21 24 25 23 23 24 23 21 21 22 20 20 18 16 18 21 23
39 41 43 44 45 45 44 44 43 41 39 38 37 36 36 35 34 32 30 28 28 27 27 28 30 31 31 32 32 31 32 31 30 30 31 29 28 31 34 33 29 28 27 27 27 25 24 23 22 21 21 21 21 21 19 19 19 20 20 19 19 18 17 18 19 20 20 20 21 21 21 21 22 22 21 19 18 17 16 16 17 19 22 23 24
38 40 43 45 46 46 46 44 42 39 38 37 37 36 35 34 32 30 28 28 28 29 28 29 29 30 31 32 32 31 31 31 30 29 30 28 27 31 36 34 28 25 25 25 25 25 24 23 22 22 23 24 24 22 20 20 21 20 20 19 19 18 18 20 20 19 18 17 18 19 19 19 19 18 17 16 15 15 16 17 21 23 22 20 22
37 40 43 46 47 47 46 43 40 38 38 38 36 36 35 32 30 29 29 29 29 30 28 26 27 29 31 32 33 33 32 31 29 29 29 28 28 32 37 35 27 23 22 22 23 24 24 23 22 23 24 24 23 21 20 20 20 19 19 19 18 19 20 20 16 13 11 11 10 11 12 13 13 14 15 16 17 19 19 19 22 23 19 15 15
39 41 43 47 48 47 45 42 39 38 38 37 37 35 33 30 30 31 32 32 31 30 29 27 27 29 31 32 33 31 29 28 27 27 28 28 30 33 36 34 29 25 22 21 21 22 22 21 21 22 22 22 21 20 19 19 18 18 18 17 17 18 18 16 13 11 11 11 10 11 13 14 16 17 17 17 18 18 19 19 21 22 19 15 15
41 43 45 46 46 44 42 41 40 39 38 37 35 34 31 30 31 32 32 32 30 28 28 28 28 28 29 30 29 26 25 25 25 26 26 27 30 33 33 31 29 27 24 22 21 21 21 21 20 20 20 20 20 20 18 16 16 16 16 16 16 16 15 13 13 14 15 16 16 18 19 20 19 15 14 14 15 15 18 20 23 23 22 19 17
46 46 44 43 42 42 41 41 40 39 37 36 34 33 32 32 32 32 31 31 29 27 27 27 28 28 28 27 26 23 22 22 23 24 26 27 29 32 32 30 29 28 25 23 22 21 21 20 20 19 19 19 19 18 16 14 14 14 14 15 15 15 15 15 16 16 17 18 19 20 20 17 14 11 12 14 15 16 17 16 15 16 15 14 14
44 42 39 38 39 40 40 40 40 39 37 36 34 33 33 33 32 31 30 29 28 27 28 28 27 26 26 24 23 22 21 21 22 23 25 27 29 31 31 30 29 27 25 23 22 22 21 20 19 19 18 18 18 17 16 14 13 12 13 15 15 16 16 17 18 18 18 17 17 17 15 12 11 12 15 16 17 18 15 10 10 12 12 13 14
38 36 36 37 37 38 38 39 39 38 37 37 34 32 32 31 31 29 27 28 29 28 27 26 25 25 25 23 21 22 21 20 20 23 25 26 28 30 31 29 27 25 23 22 22 21 20 19 18 17 16 16 15 15 14 13 11 11 12 12 13 14 15 16 17 17 17 16 14 11 9 10 12 14 14 14 14 14 13 14 17 19 18 18 17
34 33 33 34 34 36 38 39 38 37 36 36 34 32 30 30 29 29 28 28 28 25 23 24 26 27 25 23 22 23 21 17 17 21 23 25 27 30 30 27 23 21 21 20 21 19 18 17 16 14 14 14 12 11 11 10 9 9 9 10 11 13 14 16 16 16 16 14 10 9 9 10 11 13 14 13 12 14 18 20 21 20 19 19 18
32 32 33 33 34 35 36 37 37 37 36 36 34 32 32 31 29 28 28 27 26 25 25 26 27 26 24 23 23 22 19 15 15 17 20 23 26 28 28 24 19 18 18 18 18 18 17 16 14 13 13 13 11 11 11 9 7 7 8 9 11 12 13 14 14 14 12 10 8 8 9 10 11 13 13 14 16 20 21 19 17 17 17 18 18
23 25 27 29 31 33 34 35 36 36 36 36 35 33 32 31 28 26 27 27 27 26 26 26 26 25 24 24 23 21 18 16 16 16 17 20 23 26 27 24 19 16 16 15 14 15 16 15 13 13 13 13 13 13 12 9 6 7 9 9 10 10 11 11 12 12 11 11 10 11 12 11 11 11 11 14 18 20 19 18 17 17 17 18 20
24 22 21 22 23 25 26 27 28 30 32 33 33 32 31 30 27 25 26 26 25 25 25 24 24 25 25 25 24 22 20 19 19 18 18 21 22 23 24 24 20 17 15 15 13 13 14 13 13 13 14 14 14 14 11 8 8 9 10 10 10 10 11 11 12 13 14 15 15 15 14 12 10 9 11 15 17 17 18 19 20 19 18 20 22
28 23 21 21 22 23 24 25 25 26 27 28 28 28 28 28 26 24 23 23 22 23 23 22 23 24 24 24 24 23 22 23 22 22 22 22 21 21 21 22 22 21 18 16 14 12 13 13 13 13 13 12 13 12 10 9 10 12 12 13 13 12 13 14 15 16 18 18 18 18 16 11 9 11 13 15 16 16 17 18 19 19 20 21 23
34 30 26 25 26 27 28 28 27 26 26 26 27 27 27 27 25 23 22 22 22 22 21 21 22 23 23 24 25 23 23 25 25 23 22 21 21 21 21 21 22 23 22 20 16 13 13 14 14 13 13 13 13 13 12 13 14 15 15 15 15 15 16 17 18 19 20 21 20 17 13 10 10 12 13 14 15 16 17 17 18 19 22 22 22
33 33 31 28 28 29 29 28 28 28 28 29 28 26 26 27 26 24 22 22 22 22 21 20 20 20 20 23 26 24 23 24 25 22 20 20 20 20 22 22 22 24 24 22 19 16 15 16 15 15 15 15 14 14 14 15 15 17 18 18 17 17 19 20 22 22 22 21 17 13 9 9 11 12 11 13 15 17 17 17 18 20 22 22 22
24 28 29 27 27 28 27 26 27 29 31 31 29 25 23 23 24 23 22 22 22 21 19 18 18 17 17 20 24 25 23 23 23 20 18 17 16 16 18 20 20 21 22 21 19 18 18 17 17 16 16 15 15 15 14 15 16 18 20 20 19 20 20 19 18 16 12 10 8 6 7 9 9 9 11 14 17 17 16 16 19 21 21 21 22
20 23 25 26 26 27 25 25 26 28 30 31 31 28 25 23 21 21 22 23 23 21 19 17 15 15 16 17 21 24 24 22 21 20 17 15 13 12 14 16 17 20 22 21 19 19 19 18 17 17 16 15 16 15 14 15 17 20 22 22 22 22 20 15 11 9 7 4 2 5 7 7 8 10 13 16 17 16 16 18 20 20 20 22 22
21 21 22 25 26 25 24 25 26 26 27 28 30 31 30 26 22 21 22 23 23 22 20 18 15 14 13 13 16 22 25 23 20 19 16 14 12 11 12 13 15 19 21 21 20 20 20 18 16 16 16 16 15 15 15 16 18 19 21 23 23 20 17 14 10 6 2 3 5 6 6 7 10 12 13 13 14 16 19 20 19 19 21 22 20
22 22 24 24 24 23 23 24 24 24 25 26 27 29 30 27 23 21 21 21 21 21 20 18 16 14 11 9 11 18 23 23 21 18 16 14 13 13 12 13 15 17 21 23 21 19 17 16 13 13 14 14 14 14 15 14 10 7 8 11 12 10 10 10 6 3 2 4 6 6 5 6 9 12 13 13 15 18 19 18 18 20 21 20 19
23 24 25 24 23 24 24 24 25 24 24 25 25 25 25 26 25 24 22 19 18 17 17 16 15 13 12 11 12 17 22 23 20 18 16 15 16 16 16 16 17 18 22 24 22 17 15 13 11 10 10 9 9 10 10 7 3 2 2 2 3 4 7 8 5 2 2 4 5 5 4 5 8 12 14 15 16 18 16 16 19 20 19 19 21
25 26 25 23 23 24 24 25 26 25 24 25 25 23 24 26 27 26 24 20 18 16 15 15 14 12 12 13 14 17 20 20 18 17 17 18 19 19 19 20 21 22 22 22 20 16 13 10 9 8 8 6 4 3 3 3 2 1 2 3 2 3 7 7 3 1 4 6 6 6 8 10 10 11 14 16 16 15 15 17 19 19 18 21 24
27 27 25 22 21 23 23 25 27 26 26 27 26 25 26 27 26 25 23 21 20 18 16 15 15 14 14 15 16 17 18 18 18 18 18 19 20 20 20 22 23 23 23 21 18 15 12 10 8 8 7 5 4 4 3 2 0 2 1 2 2 1 4 4 2 2 4 6 6 7 9 9 9 10 13 14 13 13 15 18 18 17 20 23 24
27 26 24 21 21 23 24 26 27 27 27 28 27 26 26 26 26 24 22 20 19 19 18 17 16 16 17 17 17 18 18 18 18 17 18 18 19 19 20 21 22 23 22 20 17 15 13 10 8 7 7 7 5 4 2 1 1 1 1 3 4 2 1 1 1 4 5 5 5 6 7 7 8 11 12 11 12 13 16 17 18 20 23 24 23
24 25 24 22 22 23 23 24 26 26 26 26 25 24 24 24 24 23 22 20 19 19 18 17 18 19 20 20 19 18 18 18 18 18 18 19 20 19 19 19 19 20 19 17 15 14 11 9 8 8 8 6 5 4 4 4 4 3 3 5 5 3 3 1 3 5 4 3 5 7 8 8 9 9 8 9 12 14 15 17 20 22 23 22 22
20 23 22 21 22 23 23 24 25 25 24 25 23 22 22 22 22 22 21 20 19 18 18 18 18 20 22 23 21 20 19 19 19 20 20 21 21 21 19 17 15 15 16 16 15 13 11 10 11 10 8 6 5 6 7 7 7 6 6 5 4 5 3 1 2 3 3 5 7 7 7 7 7 6 7 10 12 14 16 19 21 21 21 22 22
20 22 22 21 22 23 23 24 25 23 22 21 21 20 20 20 21 21 21 20 20 19 19 20 19 21 23 25 24 23 23 22 22 22 23 23 23 22 21 17 13 11 12 14 15 15 13 13 13 11 8 6 6 7 8 8 8 8 7 6 6 5 3 3 4 5 5 6 7 6 5 4 5 6 9 11 12 15 18 19 19 19 20 21 21
15 15 15 17 19 19 18 16 17 20 21 20 18 18 19 19 21 22 21 20 20 20 20 19 20 21 23 25 25 24 24 24 23 23 23 23 22 22 22 19 15 12 11 11 13 14 15 14 13 11 8 7 7 9 10 11 11 10 8 7 8 6 4 3 4 6 6 7 7 6 4 3 5 7 9 11 13 16 17 16 16 18 19 20 20
13 13 14 16 17 18 17 12 7 9 15 17 17 17 18 19 23 24 23 21 21 20 19 18 18 20 21 24 25 24 23 22 22 21 21 21 20 20 20 20 17 15 11 10 12 14 15 14 12 10 7 7 9 10 11 12 12 11 10 9 8 6 4 3 3 4 6 6 4 2 2 1 4 6 8 10 13 15 15 15 16 18 19 19 20
19 18 17 17 17 19 21 17 8 5 7 11 14 15 16 20 23 25 24 23 22 21 20 19 18 19 21 24 25 23 19 18 18 18 17 17 17 18 17 16 15 14 11 8 10 13 14 12 10 8 7 8 9 10 10 10 10 9 9 7 6 5 4 4 4 4 4 3 2 2 0 3 5 6 8 11 12 14 14 15 16 18 18 18 20
21 20 18 16 16 17 18 16 12 10 9 8 10 10 12 18 24 25 24 24 23 22 22 21 20 21 24 25 25 23 18 16 17 16 15 16 16 16 15 14 14 14 13 10 10 11 11 9 9 8 7 8 8 8 7 6 6 7 7 5 4 5 5 4 4 4 4 4 3 3 4 5 6 7 9 10 11 13 15 15 16 18 18 18 19
20 19 16 15 14 14 14 13 15 17 15 11 12 12 13 17 22 23 23 24 24 22 22 21 21 22 25 26 26 24 21 19 17 15 15 17 18 16 16 16 17 16 15 13 12 11 9 9 9 8 6 6 6 5 5 5 5 5 5 4 4 5 4 3 3 4 4 5 5 5 6 7 8 8 9 9 11 14 14 14 15 17 18 17 18
16 16 15 14 14 13 10 9 13 18 18 15 15 16 16 16 16 16 19 24 24 22 21 20 20 21 23 25 25 25 23 21 19 15 13 14 15 16 17 19 18 17 16 15 14 12 11 11 12 10 8 7 7 5 4 4 3 3 2 2 3 5 4 3 3 3 4 5 5 6 7 8 10 10 9 9 11 13 13 13 15 16 16 16 18
15 18 18 17 15 14 11 10 12 15 16 14 13 14 13 12 11 11 15 21 24 24 22 20 19 18 19 19 21 20 20 20 19 17 14 12 11 12 17 19 18 17 17 16 15 15 14 14 13 12 10 8 7 6 5 4 3 3 4 5 6 7 7 6 5 4 5 6 6 8 10 12 12 11 9 8 10 12 14 14 14 14 14 16 18
15 15 16 16 16 17 16 14 12 11 11 11 11 11 10 10 10 11 13 17 21 22 22 20 19 17 16 16 16 16 16 16 16 17 17 15 12 10 13 16 17 18 19 19 17 16 14 13 13 13 12 9 7 6 5 4 5 6 7 7 7 7 8 9 8 8 8 9 11 12 14 14 13 10 8 7 9 11 13 13 12 13 14 16 17
17 16 15 15 14 13 12 11 9 8 7 7 9 10 11 11 12 12 11 12 14 16 17 19 19 19 17 16 15 15 15 16 16 16 17 17 15 13 13 15 16 18 19 19 17 15 13 13 14 15 13 10 7 5 4 5 7 7 6 6 7 8 9 9 9 10 11 12 13 14 14 13 11 9 7 7 8 10 11 11 12 13 14 16 18
8 9 11 12 10 7 7 7 7 6 4 3 3 6 8 10 12 13 11 11 12 12 12 14 18 20 20 18 18 18 18 18 19 18 18 18 17 17 16 17 18 19 18 18 17 15 14 15 17 17 15 12 9 7 6 6 7 7 6 6 8 9 9 9 9 10 11 12 13 13 12 12 11 9 8 6 7 9 11 10 11 13 14 16 20
2 3 5 6 4 2 2 2 2 3 3 2 3 5 7 8 11 14 14 13 14 14 13 13 15 18 19 19 19 19 19 19 18 18 18 19 21 22 21 20 21 22 21 20 17 15 16 17 18 16 14 11 9 8 8 7 7 7 7 7 9 10 10 10 10 11 12 13 13 12 11 10 9 8 7 5 6 8 9 9 11 14 15 17 19
Wind_Direction
193 194 195 197 198 200 199 200 202 203 202 202 201 200 202 203 203 202 201 199 198 198 198 195 192 192 192 192 193 195 197 197 199 200 199 200 203 203 205 205 207 215 218 216 217 220 224 226 223 221 223 226 223 218 226 234 224 217 222 223 222 228 235 232 231 248 264 271 275 280 286 286 281 278 279 281 285 287 288 288 282 274 272 276 279
192 194 194 197 200 201 200 200 201 203 202 202 202 201 202 202 202 201 200 199 199 199 199 199 197 195 194 196 196 197 199 200 199 199 198 200 204 204 204 205 210 216 219 220 219 220 226 228 223 222 223 222 219 215 223 231 228 230 233 234 239 242 239 239 241 247 260 271 277 282 287 286 281 279 277 277 282 287 288 289 288 280 274 277 281
193 193 194 197 200 201 200 200 202 202 201 202 203 203 202 202 201 201 200 200 200 200 200 200 201 200 199 199 199 199 201 201 200 199 199 200 203 205 206 208 212 215 218 223 223 223 227 226 224 226 223 217 216 218 227 229 226 229 237 241 242 238 233 234 239 245 255 266 274 278 284 288 287 286 285 284 288 292 290 286 283 280 280 282 285
192 193 195 198 200 200 201 201 202 202 201 202 203 204 204 203 202 202 201 201 201 200 201 201 201 200 199 198 199 200 201 201 200 200 202 203 205 209 210 211 214 216 216 218 220 222 224 225 230 234 230 221 219 225 230 228 226 231 238 237 226 218 219 227 241 254 257 260 267 273 280 286 287 286 287 288 290 293 294 290 284 279 280 283 285
192 193 195 197 199 201 202 202 203 203 201 202 204 204 205 204 204 203 203 202 202 201 201 201 201 200 200 200 200 201 201 201 199 200 203 205 208 211 213 214 215 217 217 217 219 222 226 230 235 236 232 227 224 226 229 225 226 233 235 231 226 228 238 246 252 256 256 259 269 278 283 285 284 286 289 288 288 290 292 290 284 279 278 282 286
192 194 195 197 199 201 202 203 204 203 202 203 204 204 205 205 204 204 204 204 203 202 202 202 202 202 203 203 202 202 202 201 200 200 202 204 207 211 214 216 218 220 222 223 223 225 229 233 235 232 231 232 229 228 228 222 222 230 230 227 230 237 242 245 247 252 256 263 272 279 282 282 281 285 289 289 285 286 288 288 283 277 276 282 288
193 194 196 197 199 201 202 203 204 204 203 204 204 205 205 205 205 205 205 205 204 203 203 203 204 204 204 204 204 203 201 201 201 201 202 203 206 209 212 215 218 221 223 224 222 220 222 225 227 228 229 233 232 228 223 216 213 217 221 224 233 239 241 243 247 252 254 260 267 271 276 280 281 283 287 289 285 282 284 282 279 280 283 284 287
193 195 196 198 201 202 203 204 205 204 204 204 205 206 206 205 206 205 204 205 206 205 204 204 204 204 205 205 204 203 202 201 201 201 202 204 206 208 211 213 215 218 220 222 222 220 219 221 224 227 228 229 228 226 223 221 222 227 232 238 245 249 251 250 250 250 250 253 259 265 271 278 280 281 284 286 282 280 282 279 276 282 288 288 286
194 195 196 199 202 203 203 204 205 204 204 205 206 207 207 206 206 205 205 207 208 207 207 205 204 203 204 204 203 202 202 202 203 202 201 202 205 207 208 209 213 216 220 223 225 225 225 225 225 228 229 229 230 233 234 235 237 240 243 247 251 254 255 252 249 248 250 252 259 267 273 276 278 280 283 282 278 279 286 287 281 281 285 286 286
194 195 197 199 202 204 204 204 204 204 204 206 206 206 206 205 205 205 206 208 208 208 207 205 204 203 203 202 201 202 203 204 205 205 203 202 203 204 205 208 211 215 220 223 225 228 230 229 228 227 226 227 231 236 240 242 240 238 240 247 250 249 248 248 249 251 254 258 265 271 272 272 276 280 282 283 282 285 292 291 287 289 292 291 290
193 196 197 199 201 203 204 204 205 205 205 205 206 205 205 205 205 205 206 207 207 206 205 204 204 205 204 202 202 203 205 206 207 207 206 204 204 204 205 208 210 213 219 222 223 225 227 228 227 223 222 225 231 236 237 235 229 228 236 244 248 248 247 247 250 255 259 262 266 267 265 268 276 282 282 285 288 290 290 285 286 295 298 294 292
193 196 197 198 200 202 204 204 205 205 205 205 204 204 204 204 204 204 204 204 203 202 203 204 205 205 204 202 203 206 209 210 210 209 207 207 208 207 206 209 211 213 217 221 223 224 224 224 224 224 227 231 232 229 225 225 229 237 245 248 250 253 254 254 257 261 264 264 264 266 266 269 277 281 282 286 288 287 284 281 285 290 287 283 284
194 195 196 197 200 202 203 204 205 205 205 204 203 202 202 203 203 204 203 200 197 198 201 204 204 204 203 203 205 208 213 214 212 209 205 204 210 213 212 214 214 214 218 222 224 226 224 222 224 228 232 234 231 225 223 228 238 247 252 253 255 259 262 265 268 270 270 270 269 272 275 275 277 283 289 289 284 282 282 284 286 283 275 278 283
195 195 195 197 200 201 203 204 204 205 204 202 201 200 202 203 204 204 201 195 192 193 196 201 204 204 204 204 206 210 213 213 212 211 203 198 208 220 223 221 218 217 219 222 224 225 225 226 227 228 229 231 230 228 229 236 247 257 259 257 259 263 266 269 272 273 276 277 276 278 282 282 282 289 297 294 284 279 280 281 281 279 281 287 289
196 195 196 198 199 201 202 203 204 203 200 199 199 200 201 202 203 201 197 191 188 189 195 201 204 203 203 205 206 210 213 213 215 213 202 196 207 222 225 224 220 218 220 222 223 224 225 227 226 224 225 228 230 233 238 247 256 262 262 261 264 268 269 272 276 280 284 287 286 286 289 288 287 290 295 292 283 276 275 277 283 287 289 290 290
196 196 196 198 200 200 201 202 201 199 196 195 197 198 199 200 198 192 186 185 187 192 199 203 202 201 203 206 208 211 215 217 216 211 203 202 209 219 221 220 217 216 218 220 222 224 225 224 222 224 229 234 236 241 247 255 259 259 257 260 264 267 272 279 286 291 295 294 292 291 290 287 285 288 292 290 283 281 285 288 291 291 287 284 287
197 197 197 199 200 200 200 199 196 194 193 193 193 196 197 194 188 180 176 178 184 191 197 199 202 204 204 207 210 212 213 214 212 209 209 210 209 212 217 216 211 210 212 213 216 218 219 222 225 230 236 240 244 248 252 255 255 254 254 257 262 268 277 288 295 297 294 289 287 289 290 291 292 296 298 294 290 293 294 293 294 293 286 280 282
199 199 200 200 200 199 198 195 192 189 189 190 190 191 190 185 179 178 178 177 182 189 192 194 200 204 205 208 211 210 208 207 206 207 210 209 206 209 214 213 210 210 210 210 212 214 218 225 231 235 239 243 247 250 252 253 252 252 253 256 264 274 284 290 286 275 269 271 277 285 293 303 306 304 300 295 295 298 294 292 296 292 280 273 276
200 202 202 200 198 196 194 190 188 186 185 186 186 184 181 177 177 181 181 180 183 189 192 193 196 199 204 206 205 202 201 201 202 202 203 203 205 210 212 210 210 212 212 213 216 220 225 229 229 231 237 241 246 250 252 251 251 252 253 257 267 274 278 276 273 275 279 283 288 296 303 309 310 308 308 305 302 302 299 300 300 291 278 275 283
201 203 203 198 193 190 188 185 183 181 180 180 179 177 176 175 176 178 179 180 182 184 187 190 192 195 199 200 197 197 199 199 198 199 200 201 204 207 209 209 210 211 212 214 218 222 227 229 229 231 236 240 245 250 250 247 246 249 252 255 259 263 266 267 272 283 292 297 302 307 310 312 313 313 313 310 309 309 309 311 311 302 291 290 297
202 200 196 191 186 183 182 179 176 175 175 174 172 173 174 175 174 175 176 177 177 177 182 186 188 189 191 192 192 197 202 202 201 201 202 203 204 207 210 211 211 210 210 212 217 222 227 231 232 233 235 239 245 246 244 242 243 248 252 253 256 261 268 274 279 289 299 304 308 309 309 313 317 314 310 311 315 316 314 317 326 326 321 314 310
196 192 186 181 177 175 173 172 170 170 171 170 168 170 172 173 174 173 173 175 176 177 179 178 175 173 176 181 185 189 196 203 204 203 205 207 207 208 211 213 214 212 208 210 217 226 231 233 233 233 234 237 239 237 236 237 240 246 251 256 264 271 278 285 291 298 303 305 304 304 312 324 325 322 319 318 319 316 312 313 318 320 319 317 314
183 178 173 168 165 166 165 164 164 164 166 167 166 165 167 169 171 173 173 175 176 176 173 169 165 164 167 172 178 182 186 193 200 202 205 209 209 210 211 212 212 210 209 211 217 223 227 226 225 228 231 232 230 227 226 227 233 244 257 266 273 280 286 292 296 299 299 300 299 301 311 317 317 320 324 323 318 315 315 316 316 317 317 316 315
169 161 159 157 156 157 156 156 158 159 160 161 159 159 162 166 168 170 171 170 167 164 164 163 161 161 160 160 165 173 178 185 194 198 200 204 207 209 208 205 203 204 210 215 216 216 217 215 217 224 229 228 228 226 220 220 231 250 263 270 274 281 286 289 292 294 290 285 283 285 290 299 307 313 315 313 311 314 318 319 318 319 317 314 312
139 137 140 142 144 147 149 150 152 153 154 156 155 155 158 160 160 162 164 162 160 159 160 159 157 156 153 152 158 168 178 187 192 193 194 198 201 205 207 205 201 200 203 204 206 208 209 210 217 225 227 227 229 226 219 220 237 255 262 265 267 272 277 278 280 278 267 258 260 265 272 290 309 313 308 305 307 314 319 320 319 320 318 315 314
89 95 104 112 122 128 129 132 137 142 147 151 150 150 152 151 151 155 158 159 160 161 160 157 154 152 151 153 161 171 181 188 191 192 194 197 199 202 206 207 205 201 195 192 192 196 203 211 219 222 224 227 228 222 217 223 243 253 256 256 255 256 256 256 258 258 253 252 256 259 268 289 309 310 307 311 315 319 321 318 318 319 320 319 316
99 97 101 110 118 120 121 126 133 138 141 142 142 142 144 145 145 147 150 153 155 157 157 153 150 151 153 156 163 173 181 186 189 190 192 197 200 202 204 206 207 207 203 198 197 199 202 208 215 219 219 219 217 215 219 233 247 253 254 251 249 249 249 251 255 257 257 260 264 266 270 287 306 310 315 320 321 321 320 318 317 318 319 318 313
125 126 131 136 137 137 139 142 141 136 133 134 135 136 139 144 143 143 147 151 152 152 154 154 154 156 158 160 164 169 175 182 188 191 192 195 197 199 203 206 207 209 211 209 206 207 206 205 207 210 209 207 211 218 229 242 251 256 254 249 248 250 252 256 260 263 265 269 273 270 271 286 304 312 321 325 321 318 318 317 316 316 317 314 308
135 138 142 144 143 143 143 141 137 131 128 129 130 132 139 147 148 145 147 154 157 157 160 164 168 169 167 167 169 170 174 184 192 195 196 195 196 200 205 207 207 210 213 212 208 204 201 201 201 200 201 207 217 228 239 249 255 256 252 249 250 253 254 259 265 271 274 273 267 262 270 294 308 318 328 326 317 313 314 316 318 318 315 311 306
134 137 139 139 138 137 136 134 133 131 129 126 123 121 128 140 146 146 149 155 161 164 166 171 178 181 181 179 177 180 190 197 197 194 194 195 197 204 210 211 210 208 208 210 208 203 198 197 198 201 206 214 225 235 244 250 253 254 255 256 255 254 257 263 269 269 262 250 247 266 297 310 319 334 333 318 311 314 320 322 321 317 315 311 307
139 136 135 136 136 134 132 131 130 130 130 128 125 122 122 126 135 143 148 155 161 165 167 168 170 177 188 189 185 189 200 202 192 184 184 187 190 198 207 210 207 202 201 203 203 199 197 196 199 206 214 221 229 237 243 249 254 260 263 263 260 257 254 248 235 217 202 198 295 330 329 323 328 334 325 313 313 322 326 321 317 316 318 316 311
141 134 130 131 133 133 131 132 133 131 131 131 130 129 127 123 123 128 137 149 157 161 162 160 153 155 171 182 184 188 192 192 185 178 177 180 183 186 195 203 201 199 201 204 200 197 199 201 205 215 223 227 231 237 246 255 261 265 262 255 252 249 238 220 202 189 169 24 5 349 333 326 330 333 328 321 323 325 318 314 317 321 321 319 319
133 130 130 130 132 133 134 136 138 136 135 136 136 138 139 136 128 121 122 132 143 149 151 151 149 149 154 160 174 183 184 183 180 176 175 180 184 184 188 196 197 196 200 201 198 194 197 204 212 219 221 221 224 232 243 252 257 259 246 234 228 221 207 189 168 129 66 24 5 348 333 332 336 334 329 324 320 315 312 316 324 326 323 322 326
129 132 136 137 137 138 139 143 146 146 144 145 145 146 147 146 139 129 122 122 128 135 140 143 146 151 153 154 161 170 174 175 176 176 178 182 188 191 191 190 191 195 199 200 198 194 197 206 210 209 212 224 239 246 249 245 216 115 93 121 146 164 166 159 146 121 38 1 350 336 321 323 327 322 316 313 311 311 318 328 328 325 326 328 327
132 137 142 143 144 144 145 149 153 153 151 151 151 150 150 149 147 145 145 143 140 136 136 140 145 150 155 157 158 162 168 173 176 180 183 185 188 190 187 184 186 191 196 199 199 198 199 203 205 214 233 252 263 254 231 203 191 310 352 20 45 149 164 167 184 300 346 342 327 309 307 312 314 309 304 305 311 320 330 332 328 327 330 329 322
139 144 147 148 149 149 149 150 154 157 157 156 155 155 156 157 157 155 156 156 152 146 144 146 149 151 154 157 159 160 165 170 174 178 183 186 188 189 186 185 187 189 192 195 198 200 205 210 217 232 240 225 181 159 159 158 330 323 330 9 9 184 181 191 245 331 355 353 343 331 322 314 306 300 301 308 321 333 333 330 329 329 327 323 318
146 148 150 151 152 154 153 152 154 157 159 159 159 159 160 161 160 158 158 159 157 155 155 157 158 155 152 154 158 160 161 165 170 176 180 182 186 189 191 191 190 190 192 196 201 208 217 223 225 223 211 197 190 188 189 209 316 0 14 351 337 314 218 189 345 350 357 1 359 346 332 317 306 305 309 322 336 337 331 329 326 321 319 319 319
146 151 152 151 154 156 154 152 155 155 155 158 161 160 158 158 159 160 162 162 159 159 162 165 166 164 160 159 162 164 164 164 168 172 176 180 183 187 190 190 191 195 200 205 211 217 219 211 202 198 198 207 227 233 229 248 267 289 324 325 307 266 234 265 337 339 337 334 327 316 306 304 310 316 323 331 334 332 327 322 317 314 317 321 323
145 154 155 154 157 158 155 156 158 157 156 159 161 159 156 157 158 160 161 159 159 165 169 169 170 171 170 169 170 170 169 170 173 175 179 185 189 189 186 186 192 204 212 215 214 213 209 201 199 203 210 224 240 238 241 255 261 268 288 289 242 216 221 276 320 315 302 306 306 291 279 292 312 321 322 326 330 327 320 315 315 318 322 324 326
151 156 157 157 158 158 158 159 160 159 160 162 163 164 165 162 159 160 159 156 158 167 171 170 173 178 179 179 180 179 177 179 182 184 186 189 193 193 191 190 197 205 208 208 209 211 211 205 201 204 212 224 236 241 244 245 243 249 260 248 222 223 256 296 303 303 302 304 298 275 261 290 307 304 312 323 327 322 317 317 322 326 326 327 330
143 135 133 138 145 148 147 147 153 160 165 166 168 171 171 166 162 161 158 157 162 169 170 173 181 187 188 188 188 186 184 184 185 188 191 193 195 196 196 200 206 206 207 215 220 218 212 206 202 206 215 227 241 248 244 239 239 245 246 235 228 240 262 282 299 307 306 297 289 274 259 272 289 303 319 324 320 320 322 326 328 328 328 331 334
129 115 109 115 128 137 136 132 142 165 166 168 173 175 167 160 159 160 158 159 165 167 166 173 184 190 191 190 188 185 185 186 187 189 193 195 197 200 203 209 214 213 214 223 220 207 199 196 199 207 219 229 239 242 238 238 245 247 239 229 227 234 239 238 260 294 302 295 278 239 201 263 308 324 328 321 319 326 331 330 328 330 331 333 336
129 123 116 113 123 135 137 136 143 168 159 155 160 160 154 153 155 155 154 158 163 165 166 173 183 187 188 187 184 181 182 186 189 192 195 198 201 206 209 211 211 207 206 211 205 197 195 196 198 208 223 230 235 236 235 239 243 231 218 216 218 216 224 234 239 258 277 266 192 161 214 321 324 325 321 318 322 329 330 327 329 332 332 332 335
124 127 127 126 132 140 140 140 154 176 176 152 129 125 141 153 153 150 150 155 161 166 170 173 178 182 183 183 183 180 179 181 188 195 201 201 201 203 202 198 194 195 201 204 197 192 197 202 203 210 221 228 233 236 232 227 217 204 205 219 227 221 234 252 248 245 249 243 235 261 296 309 313 313 310 312 318 323 326 330 332 330 330 333 335
120 124 133 137 138 144 152 158 163 165 162 148 132 134 150 155 150 149 155 160 162 166 172 175 178 181 182 184 186 187 184 180 183 194 207 211 210 210 205 199 196 197 201 203 200 198 199 201 202 205 208 211 215 216 203 192 195 206 217 233 234 231 244 254 232 218 221 227 240 263 280 288 296 298 297 304 315 323 328 330 328 327 331 336 334
139 135 138 135 128 129 137 138 132 131 133 134 133 135 139 139 136 142 158 164 165 168 171 173 177 181 182 184 189 192 194 195 196 199 207 212 213 211 205 201 201 202 201 202 206 207 203 200 205 213 214 207 206 208 207 212 233 245 251 266 266 262 263 254 227 221 230 238 253 272 281 287 292 291 288 297 316 326 325 321 322 329 335 333 327
141 144 142 135 126 125 128 122 116 123 136 145 139 126 124 133 138 143 153 160 164 169 171 173 178 182 183 187 192 196 201 208 211 212 210 209 213 215 211 208 208 208 205 202 202 203 204 210 220 224 216 203 197 201 209 231 263 278 295 312 308 289 273 265 261 261 261 266 277 285 289 293 295 290 286 296 315 322 319 317 323 332 330 322 321
84 107 123 127 127 131 135 137 136 134 135 141 143 141 144 151 150 142 141 149 159 167 172 176 180 182 184 189 196 203 207 211 212 211 210 212 216 217 211 206 203 200 198 196 196 200 209 219 221 214 203 191 186 192 209 249 273 278 291 303 297 275 262 263 270 276 279 284 289 289 289 291 289 278 273 288 308 316 318 321 329 330 322 317 322
57 63 72 81 90 105 115 123 134 136 122 120 141 156 162 162 158 152 149 153 160 168 174 178 181 186 189 190 193 199 203 205 205 206 209 212 215 212 204 197 194 194 197 199 202 210 218 217 208 200 197 195 200 213 240 266 268 271 285 291 274 257 251 254 265 275 282 288 292 292 288 286 279 264 258 277 300 316 324 328 329 325 319 320 327
47 49 62 63 55 55 72 91 113 130 124 104 137 160 166 168 168 166 166 170 177 182 185 181 179 182 188 193 198 202 203 204 206 208 209 209 210 211 210 208 204 201 201 201 203 209 214 210 200 196 197 202 211 223 233 243 252 264 282 284 269 259 255 257 267 279 287 294 297 294 288 282 273 258 250 267 304 324 329 326 323 323 322 324 329
94 83 109 124 128 112 99 104 135 160 172 194 203 193 182 170 166 167 172 181 189 197 201 199 193 193 197 200 203 207 210 212 215 217 217 215 213 213 213 213 210 206 201 198 198 201 202 198 193 192 197 205 213 215 218 233 256 271 279 276 265 259 261 267 275 285 294 300 299 292 284 278 265 244 239 270 315 327 324 317 318 322 324 326 332